Time,TemperatureF,DewpointF,PressureIn,WindDirection,WindDirectionDegrees,WindSpeedMPH,WindSpeedGustMPH,Humidity,HourlyPrecipIn,Conditions,Clouds,dailyrainin,SoftwareType,DateUTC
2013-09-17 00:01:00,45.6,43.1,30.39,SSW,205,0.0,0.0,91,0.00,RA,,0.00,WeatherDisplay:10.37,2013-09-17 04:01:00,
2013-09-17 00:02:00,45.6,43.1,30.39,SSW,205,0.0,0.0,91,0.00,RA,,0.00,WeatherDisplay:10.37,2013-09-17 04:02:00,
2013-09-17 00:03:00,45.6,43.1,30.39,SSW,205,0.0,0.0,91,0.00,RA,,0.00,WeatherDisplay:10.37,2013-09-17 04:03:00,
2013-09-17 00:08:00,45.5,43.0,30.39,SSW,205,0.0,0.0,91,0.00,RA,,0.00,WeatherDisplay:10.37,2013-09-17 04:08:00,
2013-09-17 00:13:00,45.3,42.8,30.39,SSW,205,0.0,0.0,91,0.00,CLR,,0.00,WeatherDisplay:10.37,2013-09-17 04:13:00,
2013-09-17 00:18:00,45.1,42.6,30.39,SSW,205,0.0,0.0,91,0.00,CLR,,0.00,WeatherDisplay:10.37,2013-09-17 04:18:00,
2013-09-17 00:23:00,44.8,42.3,30.40,SSW,205,0.0,0.0,91,0.00,CLR,,0.00,WeatherDisplay:10.37,2013-09-17 04:23:00,
2013-09-17 00:28:00,44.6,42.1,30.40,SSW,205,0.0,0.0,91,0.00,CLR,,0.00,WeatherDisplay:10.37,2013-09-17 04:28:00,
2013-09-17 00:33:00,44.3,41.8,30.40,SSW,205,0.0,0.0,91,0.00,CLR,,0.00,WeatherDisplay:10.37,2013-09-17 04:33:00,
2013-09-17 00:38:00,44.1,41.6,30.40,SSW,205,0.0,0.0,91,0.00,CLR,,0.00,WeatherDisplay:10.37,2013-09-17 04:38:00,
2013-09-17 00:43:00,43.8,41.3,30.40,SSW,205,0.0,0.0,91,0.00,CLR,,0.00,WeatherDisplay:10.37,2013-09-17 04:43:00,
2013-09-17 00:48:00,43.5,41.3,30.40,SSW,205,0.0,0.0,92,0.00,CLR,,0.00,WeatherDisplay:10.37,2013-09-17 04:48:00,
2013-09-17 00:53:00,43.3,41.1,30.40,SSW,205,0.0,0.0,92,0.00,CLR,,0.00,WeatherDisplay:10.37,2013-09-17 04:53:00,
2013-09-17 00:58:00,43.2,40.8,30.40,SSW,205,0.0,0.0,91,0.00,CLR,,0.00,WeatherDisplay:10.37,2013-09-17 04:58:00,
2013-09-17 01:03:00,43.1,40.7,30.40,SSW,205,0.0,0.0,91,0.00,CLR,,0.00,WeatherDisplay:10.37,2013-09-17 05:03:00,
2013-09-17 01:08:00,42.9,40.5,30.41,SSW,205,0.0,0.0,91,0.00,CLR,,0.00,WeatherDisplay:10.37,2013-09-17 05:08:00,
2013-09-17 01:13:00,42.8,40.4,30.41,SSW,205,0.0,0.0,91,0.00,CLR,,0.00,WeatherDisplay:10.37,2013-09-17 05:13:00,
2013-09-17 01:18:00,42.7,40.3,30.41,SSW,205,0.0,0.0,91,0.00,CLR,,0.00,WeatherDisplay:10.37,2013-09-17 05:18:00,
2013-09-17 01:23:00,42.8,40.4,30.41,SSW,205,0.0,0.0,91,0.00,CLR,,0.00,WeatherDisplay:10.37,2013-09-17 05:23:00,
2013-09-17 01:28:00,43.0,40.6,30.41,SSW,205,0.0,0.0,91,0.00,CLR,,0.00,WeatherDisplay:10.37,2013-09-17 05:28:00,
2013-09-17 01:33:00,42.8,40.4,30.41,SSW,205,0.0,0.0,91,0.00,CLR,,0.00,WeatherDisplay:10.37,2013-09-17 05:33:00,
2013-09-17 01:38:00,42.7,40.3,30.41,SSW,205,0.0,0.0,91,0.00,CLR,,0.00,WeatherDisplay:10.37,2013-09-17 05:38:00,
2013-09-17 01:43:00,42.6,40.2,30.41,SSW,205,0.0,0.0,91,0.00,CLR,,0.00,WeatherDisplay:10.37,2013-09-17 05:43:00,
2013-09-17 01:48:00,42.4,40.0,30.41,SSW,205,0.0,0.0,91,0.00,CLR,,0.00,WeatherDisplay:10.37,2013-09-17 05:48:00,
2013-09-17 01:53:00,42.3,39.9,30.40,SSW,205,0.0,0.0,91,0.00,CLR,,0.00,WeatherDisplay:10.37,2013-09-17 05:53:00,
2013-09-17 01:58:00,42.2,39.8,30.41,West,259,1.1,0.0,91,0.00,CLR,,0.00,WeatherDisplay:10.37,2013-09-17 05:58:00,
2013-09-17 02:03:00,42.1,39.7,30.41,West,259,0.0,0.0,91,0.00,,,0.00,WeatherDisplay:10.37,2013-09-17 06:03:00,
2013-09-17 02:08:00,42.1,39.7,30.41,WSW,258,0.0,0.0,91,0.00,,,0.00,WeatherDisplay:10.37,2013-09-17 06:08:00,
2013-09-17 02:14:00,42.0,39.6,30.41,West,259,0.0,0.0,91,0.00,,,0.00,WeatherDisplay:10.37,2013-09-17 06:14:00,
2013-09-17 02:19:00,41.9,39.5,30.41,WSW,258,0.0,0.0,91,0.00,,,0.00,WeatherDisplay:10.37,2013-09-17 06:19:00,
2013-09-17 02:24:00,41.9,39.5,30.41,West,259,0.0,0.0,91,0.00,,,0.00,WeatherDisplay:10.37,2013-09-17 06:24:00,
2013-09-17 02:29:00,41.7,39.3,30.41,WSW,258,0.0,0.0,91,0.00,,,0.00,WeatherDisplay:10.37,2013-09-17 06:29:00,
2013-09-17 02:34:00,41.7,39.3,30.41,WSW,240,1.0,1.0,91,0.00,,,0.00,WeatherDisplay:10.37,2013-09-17 06:34:00,
2013-09-17 02:39:00,41.9,39.5,30.42,East,97,0.0,0.0,91,0.00,,,0.00,WeatherDisplay:10.37,2013-09-17 06:39:00,
2013-09-17 02:44:00,41.9,39.5,30.42,East,97,0.0,0.0,91,0.00,,,0.00,WeatherDisplay:10.37,2013-09-17 06:44:00,
2013-09-17 02:49:00,42.0,39.6,30.42,WSW,252,0.0,0.0,91,0.00,,,0.00,WeatherDisplay:10.37,2013-09-17 06:49:00,
2013-09-17 02:54:00,42.1,39.7,30.42,ENE,70,0.0,0.0,91,0.00,,,0.00,WeatherDisplay:10.37,2013-09-17 06:54:00,
2013-09-17 02:59:00,42.2,39.8,30.42,ENE,70,0.0,0.0,91,0.00,,,0.00,WeatherDisplay:10.37,2013-09-17 06:59:00,
2013-09-17 03:04:00,42.1,39.7,30.42,ENE,70,0.0,0.0,91,0.00,,,0.00,WeatherDisplay:10.37,2013-09-17 07:04:00,
2013-09-17 03:09:00,42.0,39.6,30.42,ESE,103,0.0,0.0,91,0.00,,,0.00,WeatherDisplay:10.37,2013-09-17 07:09:00,
2013-09-17 03:14:00,41.9,39.5,30.42,SW,236,0.0,0.0,91,0.00,,,0.00,WeatherDisplay:10.37,2013-09-17 07:14:00,
2013-09-17 03:19:00,41.8,39.4,30.42,SW,236,0.0,0.0,91,0.00,,,0.00,WeatherDisplay:10.37,2013-09-17 07:19:00,
2013-09-17 03:24:00,41.5,39.1,30.42,SW,236,0.0,0.0,91,0.00,,,0.00,WeatherDisplay:10.37,2013-09-17 07:24:00,
2013-09-17 03:29:00,41.3,39.2,30.42,SW,236,0.0,0.0,92,0.00,,,0.00,WeatherDisplay:10.37,2013-09-17 07:29:00,
2013-09-17 03:34:00,41.0,38.9,30.42,SW,236,0.0,0.0,92,0.00,,,0.00,WeatherDisplay:10.37,2013-09-17 07:34:00,
2013-09-17 03:39:00,40.9,38.8,30.42,SW,236,0.0,0.0,92,0.00,,,0.00,WeatherDisplay:10.37,2013-09-17 07:39:00,
2013-09-17 03:44:00,40.7,38.6,30.42,SW,234,0.0,0.0,92,0.00,,,0.00,WeatherDisplay:10.37,2013-09-17 07:44:00,
2013-09-17 03:49:00,40.5,38.4,30.42,SW,234,0.0,0.0,92,0.00,,,0.00,WeatherDisplay:10.37,2013-09-17 07:49:00,
2013-09-17 03:54:00,40.3,38.2,30.42,SW,236,0.0,0.0,92,0.00,,,0.00,WeatherDisplay:10.37,2013-09-17 07:54:00,
2013-09-17 03:59:00,39.9,37.8,30.42,SW,236,0.0,0.0,92,0.00,,,0.00,WeatherDisplay:10.37,2013-09-17 07:59:00,
2013-09-17 04:04:00,39.6,37.5,30.42,SW,234,0.0,0.0,92,0.00,,,0.00,WeatherDisplay:10.37,2013-09-17 08:04:00,
2013-09-17 04:09:00,39.3,37.2,30.42,SW,235,0.0,0.0,92,0.00,,,0.00,WeatherDisplay:10.37,2013-09-17 08:09:00,
2013-09-17 04:14:00,39.0,36.9,30.43,SW,235,0.0,0.0,92,0.00,,,0.00,WeatherDisplay:10.37,2013-09-17 08:14:00,
2013-09-17 04:19:00,38.8,36.7,30.43,SW,235,0.0,0.0,92,0.00,,,0.00,WeatherDisplay:10.37,2013-09-17 08:19:00,
2013-09-17 04:24:00,38.7,36.6,30.43,SW,236,0.0,0.0,92,0.00,,,0.00,WeatherDisplay:10.37,2013-09-17 08:24:00,
2013-09-17 04:29:00,38.6,36.2,30.43,SW,235,0.0,0.0,91,0.00,,,0.00,WeatherDisplay:10.37,2013-09-17 08:29:00,
2013-09-17 04:34:00,38.3,36.2,30.43,SW,234,0.0,0.0,92,0.00,,,0.00,WeatherDisplay:10.37,2013-09-17 08:34:00,
2013-09-17 04:39:00,38.4,36.3,30.43,SW,236,0.0,0.0,92,0.00,,,0.00,WeatherDisplay:10.37,2013-09-17 08:39:00,
2013-09-17 04:44:00,38.4,36.0,30.43,SW,235,0.0,0.0,91,0.00,,,0.00,WeatherDisplay:10.37,2013-09-17 08:44:00,
2013-09-17 04:49:00,38.3,35.9,30.43,SW,236,0.0,0.0,91,0.00,,,0.00,WeatherDisplay:10.37,2013-09-17 08:49:00,
2013-09-17 04:54:00,38.6,36.2,30.43,SW,236,0.0,0.0,91,0.00,,,0.00,WeatherDisplay:10.37,2013-09-17 08:54:00,
2013-09-17 04:59:00,38.7,36.6,30.43,SW,235,0.0,0.0,92,0.00,,,0.00,WeatherDisplay:10.37,2013-09-17 08:59:00,
2013-09-17 05:04:00,38.6,36.5,30.43,SW,235,0.0,0.0,92,0.00,,,0.00,WeatherDisplay:10.37,2013-09-17 09:04:00,
2013-09-17 05:09:00,38.6,36.5,30.43,SW,234,0.0,0.0,92,0.00,,,0.00,WeatherDisplay:10.37,2013-09-17 09:09:00,
2013-09-17 05:14:00,38.6,36.5,30.44,SW,235,0.0,0.0,92,0.00,,,0.00,WeatherDisplay:10.37,2013-09-17 09:14:00,
2013-09-17 05:19:00,38.5,36.4,30.44,SW,236,0.0,0.0,92,0.00,,,0.00,WeatherDisplay:10.37,2013-09-17 09:19:00,
2013-09-17 05:24:00,38.3,36.2,30.44,SW,236,0.0,0.0,92,0.00,,,0.00,WeatherDisplay:10.37,2013-09-17 09:24:00,
2013-09-17 05:29:00,38.3,36.2,30.44,SW,234,0.0,0.0,92,0.00,,,0.00,WeatherDisplay:10.37,2013-09-17 09:29:00,
2013-09-17 05:34:00,38.1,36.0,30.44,SW,234,0.0,0.0,92,0.00,,,0.00,WeatherDisplay:10.37,2013-09-17 09:34:00,
2013-09-17 05:39:00,37.9,35.8,30.44,SW,236,0.0,0.0,92,0.00,,,0.00,WeatherDisplay:10.37,2013-09-17 09:39:00,
2013-09-17 05:44:00,37.8,35.7,30.45,SW,235,0.0,0.0,92,0.00,,,0.00,WeatherDisplay:10.37,2013-09-17 09:44:00,
2013-09-17 05:49:00,37.7,35.6,30.45,SW,235,0.0,0.0,92,0.00,,,0.00,WeatherDisplay:10.37,2013-09-17 09:49:00,
2013-09-17 05:54:00,37.5,35.4,30.45,SW,235,0.0,0.0,92,0.00,,,0.00,WeatherDisplay:10.37,2013-09-17 09:54:00,
2013-09-17 05:59:00,37.3,35.2,30.45,SW,234,0.0,0.0,92,0.00,,,0.00,WeatherDisplay:10.37,2013-09-17 09:59:00,
2013-09-17 06:04:00,37.5,35.4,30.45,SW,235,0.0,0.0,92,0.00,,,0.00,WeatherDisplay:10.37,2013-09-17 10:04:00,
2013-09-17 06:09:00,37.5,35.4,30.46,SW,235,0.0,0.0,92,0.00,,,0.00,WeatherDisplay:10.37,2013-09-17 10:09:00,
2013-09-17 06:14:00,37.4,35.3,30.46,SW,234,0.0,0.0,92,0.00,,,0.00,WeatherDisplay:10.37,2013-09-17 10:14:00,
2013-09-17 06:19:00,37.2,35.1,30.46,SW,235,0.0,0.0,92,0.00,CLR,,0.00,WeatherDisplay:10.37,2013-09-17 10:19:00,
2013-09-17 06:24:00,37.1,35.0,30.46,SW,235,0.0,0.0,92,0.00,CLR,,0.00,WeatherDisplay:10.37,2013-09-17 10:24:00,
2013-09-17 06:29:00,37.1,35.0,30.46,SW,235,0.0,0.0,92,0.00,CLR,,0.00,WeatherDisplay:10.37,2013-09-17 10:29:00,
2013-09-17 06:34:00,37.0,34.9,30.46,SW,235,0.0,0.0,92,0.00,CLR,,0.00,WeatherDisplay:10.37,2013-09-17 10:34:00,
2013-09-17 06:39:00,36.9,34.8,30.46,SW,235,0.0,0.0,92,0.00,CLR,,0.00,WeatherDisplay:10.37,2013-09-17 10:39:00,
2013-09-17 06:44:00,37.0,34.9,30.46,SW,236,0.0,0.0,92,0.00,CLR,,0.00,WeatherDisplay:10.37,2013-09-17 10:44:00,
2013-09-17 06:49:00,36.9,34.8,30.46,SW,235,0.0,0.0,92,0.00,CLR,,0.00,WeatherDisplay:10.37,2013-09-17 10:49:00,
2013-09-17 06:54:00,36.7,34.6,30.46,SW,235,0.0,0.0,92,0.00,CLR,,0.00,WeatherDisplay:10.37,2013-09-17 10:54:00,
2013-09-17 06:59:00,36.6,34.5,30.47,SW,234,0.0,0.0,92,0.00,CLR,,0.00,WeatherDisplay:10.37,2013-09-17 10:59:00,
2013-09-17 07:04:00,36.5,34.4,30.47,SW,235,0.0,0.0,92,0.00,CLR,,0.00,WeatherDisplay:10.37,2013-09-17 11:04:00,
2013-09-17 07:09:00,36.4,34.3,30.47,SW,234,0.0,0.0,92,0.00,CLR,,0.00,WeatherDisplay:10.37,2013-09-17 11:09:00,
2013-09-17 07:14:00,36.4,34.3,30.47,SW,235,0.0,0.0,92,0.00,CLR,,0.00,WeatherDisplay:10.37,2013-09-17 11:14:00,
2013-09-17 07:19:00,36.6,34.5,30.47,SW,235,0.0,0.0,92,0.00,CLR,,0.00,WeatherDisplay:10.37,2013-09-17 11:19:00,
2013-09-17 07:24:00,36.6,34.5,30.47,SW,234,0.0,0.0,92,0.00,CLR,,0.00,WeatherDisplay:10.37,2013-09-17 11:24:00,
2013-09-17 07:29:00,37.1,35.0,30.48,SW,235,0.0,0.0,92,0.00,CLR,,0.00,WeatherDisplay:10.37,2013-09-17 11:29:00,
2013-09-17 07:34:00,37.1,35.0,30.48,SW,235,0.0,0.0,92,0.00,CLR,,0.00,WeatherDisplay:10.37,2013-09-17 11:34:00,
2013-09-17 07:39:00,37.3,35.2,30.48,SW,234,0.0,0.0,92,0.00,CLR,,0.00,WeatherDisplay:10.37,2013-09-17 11:39:00,
2013-09-17 07:44:00,37.8,35.7,30.48,SW,236,0.0,0.0,92,0.00,CLR,,0.00,WeatherDisplay:10.37,2013-09-17 11:44:00,
2013-09-17 07:49:00,38.5,36.4,30.48,SW,236,0.0,0.0,92,0.00,CLR,,0.00,WeatherDisplay:10.37,2013-09-17 11:49:00,
2013-09-17 07:54:00,39.1,37.0,30.48,SW,235,0.0,0.0,92,0.00,CLR,,0.00,WeatherDisplay:10.37,2013-09-17 11:54:00,
2013-09-17 07:59:00,39.5,37.4,30.49,SW,236,0.0,0.0,92,0.00,CLR,,0.00,WeatherDisplay:10.37,2013-09-17 11:59:00,
2013-09-17 08:05:00,39.5,37.4,30.49,SW,235,0.0,0.0,92,0.00,CLR,,0.00,WeatherDisplay:10.37,2013-09-17 12:05:00,
2013-09-17 08:10:00,39.6,37.5,30.49,SW,234,0.0,0.0,92,0.00,CLR,,0.00,WeatherDisplay:10.37,2013-09-17 12:10:00,
2013-09-17 08:15:00,39.9,37.8,30.49,SW,236,0.0,0.0,92,0.00,CLR,,0.00,WeatherDisplay:10.37,2013-09-17 12:15:00,
2013-09-17 08:20:00,40.2,38.1,30.49,SW,236,0.0,0.0,92,0.00,CLR,,0.00,WeatherDisplay:10.37,2013-09-17 12:20:00,
2013-09-17 08:25:00,40.9,39.0,30.49,SW,235,0.0,0.0,93,0.00,CLR,,0.00,WeatherDisplay:10.37,2013-09-17 12:25:00,
2013-09-17 08:30:00,41.4,39.5,30.49,SW,236,0.0,0.0,93,0.00,CLR,,0.00,WeatherDisplay:10.37,2013-09-17 12:30:00,
2013-09-17 08:35:00,41.7,39.8,30.50,SW,236,0.0,0.0,93,0.00,CLR,,0.00,WeatherDisplay:10.37,2013-09-17 12:35:00,
2013-09-17 08:40:00,42.2,40.3,30.50,SW,236,0.0,0.0,93,0.00,CLR,,0.00,WeatherDisplay:10.37,2013-09-17 12:40:00,
2013-09-17 08:45:00,42.5,40.6,30.50,SW,236,0.0,0.0,93,0.00,CLR,,0.00,WeatherDisplay:10.37,2013-09-17 12:45:00,
2013-09-17 08:50:00,42.9,41.0,30.50,SW,236,0.0,0.0,93,0.00,CLR,,0.00,WeatherDisplay:10.37,2013-09-17 12:50:00,
2013-09-17 08:55:00,43.3,41.4,30.50,SW,236,0.0,0.0,93,0.00,CLR,,0.00,WeatherDisplay:10.37,2013-09-17 12:55:00,
2013-09-17 09:00:00,43.7,41.8,30.50,SW,236,0.0,0.0,93,0.00,CLR,,0.00,WeatherDisplay:10.37,2013-09-17 13:00:00,
2013-09-17 09:05:00,44.0,42.1,30.50,SW,236,0.0,0.0,93,0.00,CLR,,0.00,WeatherDisplay:10.37,2013-09-17 13:05:00,
2013-09-17 09:10:00,44.6,42.7,30.50,SW,236,0.0,0.0,93,0.00,CLR,,0.00,WeatherDisplay:10.37,2013-09-17 13:10:00,
2013-09-17 09:15:00,45.2,43.3,30.50,SW,236,0.0,0.0,93,0.00,CLR,,0.00,WeatherDisplay:10.37,2013-09-17 13:15:00,
2013-09-17 09:20:00,45.8,43.9,30.51,SW,236,0.0,0.0,93,0.00,CLR,,0.00,WeatherDisplay:10.37,2013-09-17 13:20:00,
2013-09-17 09:25:00,46.3,44.4,30.51,SSW,203,0.0,0.0,93,0.00,CLR,,0.00,WeatherDisplay:10.37,2013-09-17 13:25:00,
2013-09-17 09:30:00,46.8,44.9,30.51,SSW,204,1.1,1.1,93,0.00,CLR,,0.00,WeatherDisplay:10.37,2013-09-17 13:30:00,
2013-09-17 09:35:00,47.5,45.6,30.51,SSW,193,0.0,0.0,93,0.00,CLR,,0.00,WeatherDisplay:10.37,2013-09-17 13:35:00,
2013-09-17 09:40:00,48.4,46.5,30.51,SSW,195,0.0,0.0,93,0.00,CLR,,0.00,WeatherDisplay:10.37,2013-09-17 13:40:00,
2013-09-17 09:45:00,49.2,47.0,30.51,SW,231,1.1,1.1,92,0.00,CLR,,0.00,WeatherDisplay:10.37,2013-09-17 13:45:00,
2013-09-17 09:50:00,49.9,46.5,30.51,SW,229,0.0,0.0,88,0.00,CLR,,0.00,WeatherDisplay:10.37,2013-09-17 13:50:00,
2013-09-17 09:55:00,50.2,42.6,30.51,West,270,2.3,2.3,75,0.00,CLR,,0.00,WeatherDisplay:10.37,2013-09-17 13:55:00,
2013-09-17 10:00:00,50.8,44.9,30.51,North,355,1.1,0.0,80,0.00,CLR,,0.00,WeatherDisplay:10.37,2013-09-17 14:00:00,
2013-09-17 10:05:00,51.3,42.9,30.51,ENE,73,0.0,0.7,73,0.00,CLR,,0.00,WeatherDisplay:10.37,2013-09-17 14:05:00,
2013-09-17 10:10:00,51.5,43.8,30.51,SSW,198,0.0,0.1,75,0.00,CLR,,0.00,WeatherDisplay:10.37,2013-09-17 14:10:00,
2013-09-17 10:15:00,52.1,45.1,30.51,SSE,161,1.1,0.0,77,0.00,CLR,,0.00,WeatherDisplay:10.37,2013-09-17 14:15:00,
2013-09-17 10:20:00,52.7,45.0,30.51,SSE,158,1.1,0.0,75,0.00,CLR,,0.00,WeatherDisplay:10.37,2013-09-17 14:20:00,
2013-09-17 10:25:00,52.8,44.0,30.51,ENE,69,3.0,3.0,72,0.00,CLR,,0.00,WeatherDisplay:10.37,2013-09-17 14:25:00,
2013-09-17 10:30:00,52.8,42.5,30.51,NE,47,4.6,4.6,68,0.00,CLR,,0.00,WeatherDisplay:10.37,2013-09-17 14:30:00,
2013-09-17 10:35:00,53.2,43.3,30.51,ESE,103,2.3,2.3,69,0.00,CLR,,0.00,WeatherDisplay:10.37,2013-09-17 14:35:00,
2013-09-17 10:40:00,53.4,43.5,30.51,ESE,114,2.3,0.0,69,0.00,CLR,,0.00,WeatherDisplay:10.37,2013-09-17 14:40:00,
2013-09-17 10:45:00,53.8,43.9,30.51,ESE,121,3.5,3.5,69,0.00,CLR,,0.00,WeatherDisplay:10.37,2013-09-17 14:45:00,
2013-09-17 10:50:00,53.9,42.4,30.51,NE,42,4.0,4.0,65,0.00,CLR,,0.00,WeatherDisplay:10.37,2013-09-17 14:50:00,
2013-09-17 10:55:00,53.9,43.6,30.51,ENE,57,4.0,4.0,68,0.00,CLR,,0.00,WeatherDisplay:10.37,2013-09-17 14:55:00,
2013-09-17 11:00:00,54.1,42.2,30.50,SW,227,2.3,2.3,64,0.00,CLR,,0.00,WeatherDisplay:10.37,2013-09-17 15:00:00,
2013-09-17 11:05:00,54.5,43.0,30.50,NE,49,3.5,3.5,65,0.00,CLR,,0.00,WeatherDisplay:10.37,2013-09-17 15:05:00,
2013-09-17 11:10:00,54.7,42.8,30.50,ESE,105,0.0,0.0,64,0.00,CLR,,0.00,WeatherDisplay:10.37,2013-09-17 15:10:00,
2013-09-17 11:15:00,55.1,43.9,30.50,SSW,198,2.3,2.3,66,0.00,CLR,,0.00,WeatherDisplay:10.37,2013-09-17 15:15:00,
2013-09-17 11:20:00,55.8,43.0,30.50,WNW,293,1.1,0.0,62,0.00,CLR,,0.00,WeatherDisplay:10.37,2013-09-17 15:20:00,
2013-09-17 11:25:00,56.1,43.7,30.50,ESE,115,3.5,3.5,63,0.00,CLR,,0.00,WeatherDisplay:10.37,2013-09-17 15:25:00,
2013-09-17 11:30:00,56.0,43.2,30.50,WSW,238,2.3,2.3,62,0.00,CLR,,0.00,WeatherDisplay:10.37,2013-09-17 15:30:00,
2013-09-17 11:35:00,56.4,42.7,30.50,ESE,118,3.5,3.5,60,0.00,CLR,,0.00,WeatherDisplay:10.37,2013-09-17 15:35:00,
2013-09-17 11:40:00,56.1,42.8,30.50,NE,39,2.3,2.3,61,0.00,CLR,,0.00,WeatherDisplay:10.37,2013-09-17 15:40:00,
2013-09-17 11:45:00,56.1,42.4,30.50,NE,54,3.0,3.0,60,0.00,CLR,,0.00,WeatherDisplay:10.37,2013-09-17 15:45:00,
2013-09-17 11:50:00,56.0,41.4,30.49,ENE,63,2.3,2.3,58,0.00,CLR,,0.00,WeatherDisplay:10.37,2013-09-17 15:50:00,
2013-09-17 11:55:00,56.1,43.3,30.49,NE,41,3.5,3.5,62,0.00,CLR,,0.00,WeatherDisplay:10.37,2013-09-17 15:55:00,
2013-09-17 12:00:00,56.7,43.4,30.49,South,169,2.3,2.3,61,0.00,CLR,,0.00,WeatherDisplay:10.37,2013-09-17 16:00:00,
2013-09-17 12:05:00,57.2,42.1,30.49,ENE,75,4.0,4.0,57,0.00,CLR,,0.00,WeatherDisplay:10.37,2013-09-17 16:05:00,
2013-09-17 12:10:00,57.1,42.0,30.49,SE,134,3.5,3.5,57,0.00,CLR,,0.00,WeatherDisplay:10.37,2013-09-17 16:10:00,
2013-09-17 12:15:00,57.2,41.2,30.49,WSW,243,2.3,2.3,55,0.00,CLR,,0.00,WeatherDisplay:10.37,2013-09-17 16:15:00,
2013-09-17 12:20:00,57.7,42.1,30.48,ENE,72,3.5,3.5,56,0.00,CLR,,0.00,WeatherDisplay:10.37,2013-09-17 16:20:00,
2013-09-17 12:25:00,57.7,42.1,30.48,SSE,153,3.5,3.5,56,0.00,CLR,,0.00,WeatherDisplay:10.37,2013-09-17 16:25:00,
2013-09-17 12:30:00,58.2,44.4,30.48,ENE,72,2.3,2.3,60,0.00,CLR,,0.00,WeatherDisplay:10.37,2013-09-17 16:30:00,
2013-09-17 12:35:00,58.4,41.8,30.48,NW,319,2.3,2.3,54,0.00,CLR,,0.00,WeatherDisplay:10.37,2013-09-17 16:35:00,
2013-09-17 12:40:00,58.7,42.6,30.48,NNE,18,1.1,1.1,55,0.00,CLR,,0.00,WeatherDisplay:10.37,2013-09-17 16:40:00,
2013-09-17 12:45:00,58.6,40.5,30.48,WNW,289,3.5,3.5,51,0.00,CLR,,0.00,WeatherDisplay:10.37,2013-09-17 16:45:00,
2013-09-17 12:50:00,58.9,45.0,30.48,SSW,193,2.3,2.3,60,0.00,CLR,,0.00,WeatherDisplay:10.37,2013-09-17 16:50:00,
2013-09-17 12:55:00,59.0,41.9,30.47,SW,217,0.0,0.0,53,0.00,CLR,,0.00,WeatherDisplay:10.37,2013-09-17 16:55:00,
2013-09-17 13:00:00,59.7,43.0,30.47,SSE,148,1.1,0.0,54,0.00,CLR,,0.00,WeatherDisplay:10.37,2013-09-17 17:00:00,
2013-09-17 13:05:00,60.2,42.0,30.47,SW,228,2.3,2.3,51,0.00,CLR,,0.00,WeatherDisplay:10.37,2013-09-17 17:05:00,
2013-09-17 13:10:00,60.4,45.1,30.47,SSW,201,0.0,0.0,57,0.00,CLR,,0.00,WeatherDisplay:10.37,2013-09-17 17:10:00,
2013-09-17 13:15:00,60.7,44.4,30.47,NE,52,3.0,3.0,55,0.00,CLR,,0.00,WeatherDisplay:10.37,2013-09-17 17:15:00,
2013-09-17 13:20:00,60.1,42.9,30.47,SSE,159,1.1,0.0,53,0.00,CLR,,0.00,WeatherDisplay:10.37,2013-09-17 17:20:00,
2013-09-17 13:25:00,60.6,42.4,30.46,WSW,256,1.1,1.1,51,0.00,CLR,,0.00,WeatherDisplay:10.37,2013-09-17 17:25:00,
2013-09-17 13:30:00,61.2,41.9,30.46,WNW,285,0.0,0.3,49,0.00,CLR,,0.00,WeatherDisplay:10.37,2013-09-17 17:30:00,
2013-09-17 13:35:00,61.5,43.7,30.46,WNW,294,2.3,2.3,52,0.00,CLR,,0.00,WeatherDisplay:10.37,2013-09-17 17:35:00,
2013-09-17 13:40:00,61.5,43.2,30.45,SW,233,4.6,4.6,51,0.00,CLR,,0.00,WeatherDisplay:10.37,2013-09-17 17:40:00,
2013-09-17 13:45:00,61.0,44.2,30.45,SSW,194,3.5,3.5,54,0.00,CLR,,0.00,WeatherDisplay:10.37,2013-09-17 17:45:00,
2013-09-17 13:50:00,61.2,42.4,30.45,SW,232,2.3,2.3,50,0.00,CLR,,0.00,WeatherDisplay:10.37,2013-09-17 17:50:00,
2013-09-17 13:55:00,61.8,43.5,30.45,SW,225,3.5,3.5,51,0.00,CLR,,0.00,WeatherDisplay:10.37,2013-09-17 17:55:00,
2013-09-17 14:00:00,62.0,44.2,30.45,ESE,105,2.3,2.3,52,0.00,CLR,,0.00,WeatherDisplay:10.37,2013-09-17 18:00:00,
2013-09-17 14:05:00,62.0,46.1,30.44,SW,217,2.3,2.3,56,0.00,CLR,,0.00,WeatherDisplay:10.37,2013-09-17 18:05:00,
2013-09-17 14:10:00,62.6,45.7,30.44,SW,221,1.1,1.1,54,0.00,CLR,,0.00,WeatherDisplay:10.37,2013-09-17 18:10:00,
2013-09-17 14:15:00,62.8,43.3,30.44,WSW,248,1.1,0.0,49,0.00,CLR,,0.00,WeatherDisplay:10.37,2013-09-17 18:15:00,
2013-09-17 14:20:00,63.0,46.1,30.43,SE,136,1.1,0.0,54,0.00,CLR,,0.00,WeatherDisplay:10.37,2013-09-17 18:20:00,
2013-09-17 14:25:00,63.0,47.1,30.44,SSW,203,0.0,0.3,56,0.00,CLR,,0.00,WeatherDisplay:10.37,2013-09-17 18:25:00,
2013-09-17 14:31:00,63.0,43.0,30.43,South,185,0.0,0.0,48,0.00,CLR,,0.00,WeatherDisplay:10.37,2013-09-17 18:31:00,
2013-09-17 14:36:00,62.9,41.8,30.43,WNW,297,1.1,1.1,46,0.00,CLR,,0.00,WeatherDisplay:10.37,2013-09-17 18:36:00,
2013-09-17 14:41:00,63.0,44.1,30.43,NE,45,1.1,1.1,50,0.00,CLR,,0.00,WeatherDisplay:10.37,2013-09-17 18:41:00,
2013-09-17 14:46:00,63.0,41.9,30.43,WSW,243,1.1,1.1,46,0.00,CLR,,0.00,WeatherDisplay:10.37,2013-09-17 18:46:00,
2013-09-17 14:51:00,62.7,43.8,30.42,NNE,25,2.0,2.0,50,0.00,CLR,,0.00,WeatherDisplay:10.37,2013-09-17 18:51:00,
2013-09-17 14:56:00,62.4,44.0,30.42,NNW,337,3.5,3.5,51,0.00,CLR,,0.00,WeatherDisplay:10.37,2013-09-17 18:56:00,
2013-09-17 15:01:00,62.7,45.3,30.42,ENE,59,3.0,3.0,53,0.00,CLR,,0.00,WeatherDisplay:10.37,2013-09-17 19:01:00,
2013-09-17 15:06:00,62.4,43.5,30.42,NE,49,3.0,3.0,50,0.00,CLR,,0.00,WeatherDisplay:10.37,2013-09-17 19:06:00,
2013-09-17 15:11:00,62.4,43.5,30.42,NNE,15,4.0,4.0,50,0.00,CLR,,0.00,WeatherDisplay:10.37,2013-09-17 19:11:00,
2013-09-17 15:16:00,62.4,43.5,30.41,SSW,205,3.5,3.5,50,0.00,CLR,,0.00,WeatherDisplay:10.37,2013-09-17 19:16:00,
2013-09-17 15:21:00,62.5,43.6,30.41,South,180,1.1,0.0,50,0.00,CLR,,0.00,WeatherDisplay:10.37,2013-09-17 19:21:00,
2013-09-17 15:26:00,63.2,44.2,30.41,SSE,152,1.0,0.0,50,0.00,CLR,,0.00,WeatherDisplay:10.37,2013-09-17 19:26:00,
2013-09-17 15:31:00,63.9,42.7,30.41,SE,126,0.0,0.0,46,0.00,CLR,,0.00,WeatherDisplay:10.37,2013-09-17 19:31:00,
2013-09-17 15:36:00,63.9,47.4,30.40,NE,46,2.3,2.3,55,0.00,CLR,,0.00,WeatherDisplay:10.37,2013-09-17 19:36:00,
2013-09-17 15:41:00,63.7,44.2,30.40,SSE,148,1.1,1.1,49,0.00,CLR,,0.00,WeatherDisplay:10.37,2013-09-17 19:41:00,
2013-09-17 15:46:00,63.7,43.6,30.40,SE,131,3.5,3.5,48,0.00,CLR,,0.00,WeatherDisplay:10.37,2013-09-17 19:46:00,
2013-09-17 15:51:00,63.8,42.6,30.40,SSW,205,0.0,0.0,46,0.00,CLR,,0.00,WeatherDisplay:10.37,2013-09-17 19:51:00,
2013-09-17 15:56:00,64.3,43.6,30.40,South,170,0.0,0.0,47,0.00,CLR,,0.00,WeatherDisplay:10.37,2013-09-17 19:56:00,
2013-09-17 16:01:00,64.6,44.5,30.39,SSE,163,0.0,0.0,48,0.00,CLR,,0.00,WeatherDisplay:10.37,2013-09-17 20:01:00,
2013-09-17 16:06:00,64.6,43.3,30.39,SSE,153,3.5,3.5,46,0.00,CLR,,0.00,WeatherDisplay:10.37,2013-09-17 20:06:00,
2013-09-17 16:11:00,64.4,44.3,30.39,SSW,209,2.3,2.3,48,0.00,CLR,,0.00,WeatherDisplay:10.37,2013-09-17 20:11:00,
2013-09-17 16:16:00,64.2,44.1,30.39,NE,39,4.0,4.0,48,0.00,CLR,,0.00,WeatherDisplay:10.37,2013-09-17 20:16:00,
2013-09-17 16:21:00,63.8,45.3,30.39,West,262,1.1,0.0,51,0.00,CLR,,0.00,WeatherDisplay:10.37,2013-09-17 20:21:00,
2013-09-17 16:26:00,63.9,44.9,30.39,ESE,120,1.1,1.1,50,0.00,CLR,,0.00,WeatherDisplay:10.37,2013-09-17 20:26:00,
2013-09-17 16:31:00,63.4,44.9,30.39,SSW,211,1.1,1.1,51,0.00,CLR,,0.00,WeatherDisplay:10.37,2013-09-17 20:31:00,
2013-09-17 16:36:00,63.3,43.3,30.39,SE,128,2.3,2.3,48,0.00,CLR,,0.00,WeatherDisplay:10.37,2013-09-17 20:36:00,
2013-09-17 16:41:00,63.4,43.9,30.39,ENE,78,1.1,1.1,49,0.00,CLR,,0.00,WeatherDisplay:10.37,2013-09-17 20:41:00,
2013-09-17 16:46:00,63.2,44.8,30.38,SSW,212,2.3,0.0,51,0.00,CLR,,0.00,WeatherDisplay:10.37,2013-09-17 20:46:00,
2013-09-17 16:51:00,63.4,44.9,30.38,ENE,68,1.1,0.0,51,0.00,CLR,,0.00,WeatherDisplay:10.37,2013-09-17 20:51:00,
2013-09-17 16:56:00,63.4,43.9,30.38,South,180,2.3,2.3,49,0.00,CLR,,0.00,WeatherDisplay:10.37,2013-09-17 20:56:00,
2013-09-17 17:01:00,63.5,45.6,30.38,SW,217,1.0,1.0,52,0.00,CLR,,0.00,WeatherDisplay:10.37,2013-09-17 21:01:00,
2013-09-17 17:06:00,63.2,46.8,30.38,SW,217,0.0,0.0,55,0.00,CLR,,0.00,WeatherDisplay:10.37,2013-09-17 21:06:00,
2013-09-17 17:11:00,62.8,47.8,30.38,NE,39,0.0,0.0,58,0.00,CLR,,0.00,WeatherDisplay:10.37,2013-09-17 21:11:00,
2013-09-17 17:16:00,62.2,45.8,30.37,North,3,0.0,0.0,55,0.00,CLR,,0.00,WeatherDisplay:10.37,2013-09-17 21:16:00,
2013-09-17 17:21:00,61.8,46.9,30.37,SSE,165,0.0,0.0,58,0.00,CLR,,0.00,WeatherDisplay:10.37,2013-09-17 21:21:00,
2013-09-17 17:26:00,61.4,48.3,30.37,ESE,105,0.0,0.0,62,0.00,CLR,,0.00,WeatherDisplay:10.37,2013-09-17 21:26:00,
2013-09-17 17:31:00,60.8,48.5,30.37,SE,124,0.0,0.0,64,0.00,CLR,,0.00,WeatherDisplay:10.37,2013-09-17 21:31:00,
2013-09-17 17:36:00,60.5,49.1,30.37,SE,139,0.0,0.0,66,0.00,CLR,,0.00,WeatherDisplay:10.37,2013-09-17 21:36:00,
2013-09-17 17:42:00,60.2,49.6,30.36,SW,224,1.1,0.0,68,0.00,CLR,,0.00,WeatherDisplay:10.37,2013-09-17 21:42:00,
2013-09-17 17:47:00,59.9,49.3,30.37,SE,129,1.1,0.0,68,0.00,CLR,,0.00,WeatherDisplay:10.37,2013-09-17 21:47:00,
2013-09-17 17:52:00,59.7,50.3,30.37,SE,129,0.0,0.0,71,0.00,CLR,,0.00,WeatherDisplay:10.37,2013-09-17 21:52:00,
2013-09-17 17:57:00,59.5,50.1,30.37,East,99,0.0,0.0,71,0.00,CLR,,0.00,WeatherDisplay:10.37,2013-09-17 21:57:00,
2013-09-17 18:02:00,59.2,49.8,30.37,ESE,115,3.5,3.5,71,0.00,CLR,,0.00,WeatherDisplay:10.37,2013-09-17 22:02:00,
2013-09-17 18:07:00,59.1,49.7,30.37,NW,321,1.1,0.0,71,0.00,CLR,,0.00,WeatherDisplay:10.37,2013-09-17 22:07:00,
2013-09-17 18:12:00,59.0,50.0,30.36,SW,233,0.0,0.0,72,0.00,CLR,,0.00,WeatherDisplay:10.37,2013-09-17 22:12:00,
2013-09-17 18:17:00,58.8,49.8,30.36,ESE,114,0.0,0.0,72,0.00,CLR,,0.00,WeatherDisplay:10.37,2013-09-17 22:17:00,
2013-09-17 18:22:00,58.8,50.5,30.36,ENE,78,1.1,1.1,74,0.00,CLR,,0.00,WeatherDisplay:10.37,2013-09-17 22:22:00,
2013-09-17 18:27:00,58.4,49.8,30.36,NNE,20,1.1,1.1,73,0.00,CLR,,0.00,WeatherDisplay:10.37,2013-09-17 22:27:00,
2013-09-17 18:32:00,58.0,49.4,30.36,North,6,0.0,0.0,73,0.00,CLR,,0.00,WeatherDisplay:10.37,2013-09-17 22:32:00,
2013-09-17 18:37:00,57.6,49.4,30.36,SW,226,0.0,0.0,74,0.00,CLR,,0.00,WeatherDisplay:10.37,2013-09-17 22:37:00,
2013-09-17 18:42:00,57.2,49.7,30.35,SW,226,0.0,0.0,76,0.00,CLR,,0.00,WeatherDisplay:10.37,2013-09-17 22:42:00,
2013-09-17 18:47:00,56.7,49.9,30.35,SSW,207,0.0,0.0,78,0.00,CLR,,0.00,WeatherDisplay:10.37,2013-09-17 22:47:00,
2013-09-17 18:53:00,56.2,50.1,30.35,SSW,207,0.0,0.0,80,0.00,CLR,,0.00,WeatherDisplay:10.37,2013-09-17 22:53:00,
2013-09-17 18:58:00,55.6,49.5,30.35,SSW,207,0.0,0.0,80,0.00,CLR,,0.00,WeatherDisplay:10.37,2013-09-17 22:58:00,
2013-09-17 19:03:00,55.0,49.3,30.35,NNE,30,0.0,0.0,81,0.00,CLR,,0.00,WeatherDisplay:10.37,2013-09-17 23:03:00,
2013-09-17 19:08:00,54.6,49.2,30.35,WNW,290,0.0,0.0,82,0.00,CLR,,0.00,WeatherDisplay:10.37,2013-09-17 23:08:00,
2013-09-17 19:13:00,54.2,49.1,30.34,WSW,255,0.0,0.0,83,0.00,CLR,,0.00,WeatherDisplay:10.37,2013-09-17 23:13:00,
2013-09-17 19:18:00,53.7,49.0,30.34,WSW,255,0.0,0.0,84,0.00,CLR,,0.00,WeatherDisplay:10.37,2013-09-17 23:18:00,
2013-09-17 19:23:00,53.3,49.2,30.34,WSW,255,0.0,0.0,86,0.00,CLR,,0.00,WeatherDisplay:10.37,2013-09-17 23:23:00,
2013-09-17 19:29:00,52.9,48.8,30.35,WSW,255,0.0,0.0,86,0.00,CLR,,0.00,WeatherDisplay:10.37,2013-09-17 23:29:00,
2013-09-17 19:34:00,52.5,48.4,30.34,WSW,255,0.0,0.0,86,0.00,CLR,,0.00,WeatherDisplay:10.37,2013-09-17 23:34:00,
2013-09-17 19:39:00,52.1,48.3,30.34,WSW,255,0.0,0.0,87,0.00,CLR,,0.00,WeatherDisplay:10.37,2013-09-17 23:39:00,
2013-09-17 19:44:00,51.8,48.4,30.34,WSW,255,0.0,0.0,88,0.00,,,0.00,WeatherDisplay:10.37,2013-09-17 23:44:00,
2013-09-17 19:49:00,51.5,48.4,30.35,WSW,255,0.0,0.0,89,0.00,,,0.00,WeatherDisplay:10.37,2013-09-17 23:49:00,
2013-09-17 19:54:00,51.1,48.0,30.35,WSW,255,0.0,0.0,89,0.00,,,0.00,WeatherDisplay:10.37,2013-09-17 23:54:00,
2013-09-17 19:59:00,50.9,48.1,30.35,WSW,255,0.0,0.0,90,0.00,,,0.00,WeatherDisplay:10.37,2013-09-17 23:59:00,
2013-09-17 20:04:00,50.6,47.8,30.35,WSW,255,0.0,0.0,90,0.00,,,0.00,WeatherDisplay:10.37,2013-09-18 00:04:00,
2013-09-17 20:09:00,50.4,47.6,30.35,WSW,255,0.0,0.0,90,0.00,,,0.00,WeatherDisplay:10.37,2013-09-18 00:09:00,
2013-09-17 20:14:00,50.3,47.8,30.34,WSW,256,0.0,0.0,91,0.00,,,0.00,WeatherDisplay:10.37,2013-09-18 00:14:00,
2013-09-17 20:19:00,50.2,47.4,30.35,WSW,256,0.0,0.0,90,0.00,,,0.00,WeatherDisplay:10.37,2013-09-18 00:19:00,
2013-09-17 20:24:00,49.9,47.1,30.35,WSW,256,0.0,0.0,90,0.00,,,0.00,WeatherDisplay:10.37,2013-09-18 00:24:00,
2013-09-17 20:29:00,49.8,47.3,30.35,WSW,256,0.0,0.0,91,0.00,,,0.00,WeatherDisplay:10.37,2013-09-18 00:29:00,
2013-09-17 20:34:00,49.7,47.2,30.35,SSE,153,0.0,0.0,91,0.00,,,0.00,WeatherDisplay:10.37,2013-09-18 00:34:00,
2013-09-17 20:39:00,49.5,47.0,30.34,SSE,153,0.0,0.0,91,0.00,,,0.00,WeatherDisplay:10.37,2013-09-18 00:39:00,
2013-09-17 20:44:00,49.3,47.1,30.34,SSE,153,0.0,0.0,92,0.00,,,0.00,WeatherDisplay:10.37,2013-09-18 00:44:00,
2013-09-17 20:49:00,49.1,46.9,30.34,SSE,153,0.0,0.0,92,0.00,,,0.00,WeatherDisplay:10.37,2013-09-18 00:49:00,
2013-09-17 20:54:00,48.6,46.4,30.34,SSE,153,0.0,0.0,92,0.00,,,0.00,WeatherDisplay:10.37,2013-09-18 00:54:00,
2013-09-17 20:59:00,48.4,46.2,30.34,SSE,153,0.0,0.0,92,0.00,,,0.00,WeatherDisplay:10.37,2013-09-18 00:59:00,
2013-09-17 21:04:00,48.2,46.3,30.34,SSE,153,0.0,0.0,93,0.00,,,0.00,WeatherDisplay:10.37,2013-09-18 01:04:00,
2013-09-17 21:09:00,48.1,46.2,30.34,SSE,153,0.0,0.0,93,0.00,,,0.00,WeatherDisplay:10.37,2013-09-18 01:09:00,
2013-09-17 21:14:00,47.9,46.0,30.34,SSE,153,0.0,0.0,93,0.00,,,0.00,WeatherDisplay:10.37,2013-09-18 01:14:00,
2013-09-17 21:19:00,47.8,45.9,30.34,SSE,153,0.0,0.0,93,0.00,,,0.00,WeatherDisplay:10.37,2013-09-18 01:19:00,
2013-09-17 21:24:00,47.6,45.7,30.34,SSE,153,0.0,0.0,93,0.00,,,0.00,WeatherDisplay:10.37,2013-09-18 01:24:00,
2013-09-17 21:29:00,47.4,45.5,30.34,SSE,153,0.0,0.0,93,0.00,,,0.00,WeatherDisplay:10.37,2013-09-18 01:29:00,
2013-09-17 21:34:00,47.3,45.4,30.34,SSE,153,0.0,0.0,93,0.00,,,0.00,WeatherDisplay:10.37,2013-09-18 01:34:00,
2013-09-17 21:39:00,47.3,45.4,30.34,SSE,153,0.0,0.0,93,0.00,,,0.00,WeatherDisplay:10.37,2013-09-18 01:39:00,
2013-09-17 21:44:00,47.3,45.4,30.33,SSE,153,0.0,0.0,93,0.00,,,0.00,WeatherDisplay:10.37,2013-09-18 01:44:00,
2013-09-17 21:49:00,47.2,45.3,30.34,SSE,153,0.0,0.0,93,0.00,,,0.00,WeatherDisplay:10.37,2013-09-18 01:49:00,
2013-09-17 21:54:00,47.2,45.3,30.33,SSE,153,0.0,0.0,93,0.00,,,0.00,WeatherDisplay:10.37,2013-09-18 01:54:00,
2013-09-17 22:00:00,47.2,45.0,30.33,SSE,155,0.0,0.0,92,0.00,,,0.00,WeatherDisplay:10.37,2013-09-18 02:00:00,
2013-09-17 22:05:00,47.1,44.9,30.33,SSE,156,0.0,0.0,92,0.00,,,0.00,WeatherDisplay:10.37,2013-09-18 02:05:00,
2013-09-17 22:10:00,47.0,44.8,30.33,SSE,156,0.0,0.0,92,0.00,,,0.00,WeatherDisplay:10.37,2013-09-18 02:10:00,
2013-09-17 22:15:00,46.9,44.7,30.33,SSE,158,0.0,0.0,92,0.00,,,0.00,WeatherDisplay:10.37,2013-09-18 02:15:00,
2013-09-17 22:20:00,46.9,44.7,30.33,SSE,158,0.0,0.0,92,0.00,,,0.00,WeatherDisplay:10.37,2013-09-18 02:20:00,
2013-09-17 22:25:00,46.8,44.6,30.33,SSE,158,0.0,0.0,92,0.00,,,0.00,WeatherDisplay:10.37,2013-09-18 02:25:00,
2013-09-17 22:30:00,46.7,44.5,30.33,SSE,158,0.0,0.0,92,0.00,,,0.00,WeatherDisplay:10.37,2013-09-18 02:30:00,
2013-09-17 22:35:00,46.5,44.3,30.33,SSE,158,0.0,0.0,92,0.00,,,0.00,WeatherDisplay:10.37,2013-09-18 02:35:00,
2013-09-17 22:40:00,46.4,44.2,30.33,SSE,158,0.0,0.0,92,0.00,,,0.00,WeatherDisplay:10.37,2013-09-18 02:40:00,
2013-09-17 22:45:00,46.1,43.9,30.33,SSE,158,0.0,0.0,92,0.00,,,0.00,WeatherDisplay:10.37,2013-09-18 02:45:00,
2013-09-17 22:50:00,46.0,43.8,30.33,SSE,158,0.0,0.0,92,0.00,,,0.00,WeatherDisplay:10.37,2013-09-18 02:50:00,
2013-09-17 22:55:00,45.9,43.7,30.33,SSE,158,0.0,0.0,92,0.00,,,0.00,WeatherDisplay:10.37,2013-09-18 02:55:00,
2013-09-17 23:00:00,45.8,43.6,30.33,SSE,158,0.0,0.0,92,0.00,,,0.00,WeatherDisplay:10.37,2013-09-18 03:00:00,
2013-09-17 23:05:00,45.6,43.4,30.33,SSE,158,0.0,0.0,92,0.00,,,0.00,WeatherDisplay:10.37,2013-09-18 03:05:00,
2013-09-17 23:10:00,45.6,43.4,30.33,SSE,158,0.0,0.0,92,0.00,,,0.00,WeatherDisplay:10.37,2013-09-18 03:10:00,
2013-09-17 23:15:00,45.7,43.2,30.33,SSE,158,0.0,0.0,91,0.00,,,0.00,WeatherDisplay:10.37,2013-09-18 03:15:00,
2013-09-17 23:20:00,45.6,43.1,30.33,SSE,158,0.0,0.0,91,0.00,,,0.00,WeatherDisplay:10.37,2013-09-18 03:20:00,
2013-09-17 23:26:00,45.6,43.1,30.33,SSE,158,0.0,0.0,91,0.00,,,0.00,WeatherDisplay:10.37,2013-09-18 03:26:00,
2013-09-17 23:31:00,45.6,43.1,30.33,SSE,158,0.0,0.0,91,0.00,,,0.00,WeatherDisplay:10.37,2013-09-18 03:31:00,
2013-09-17 23:36:00,45.6,43.1,30.33,SSE,158,0.0,0.0,91,0.00,,,0.00,WeatherDisplay:10.37,2013-09-18 03:36:00,
2013-09-17 23:41:00,45.6,43.1,30.33,SSE,158,0.0,0.0,91,0.00,,,0.00,WeatherDisplay:10.37,2013-09-18 03:41:00,
2013-09-17 23:46:00,45.6,43.1,30.33,SSE,158,0.0,0.0,91,0.00,,,0.00,WeatherDisplay:10.37,2013-09-18 03:46:00,
2013-09-17 23:51:00,45.4,42.9,30.33,SSE,158,0.0,0.0,91,0.00,,,0.00,WeatherDisplay:10.37,2013-09-18 03:51:00,
2013-09-17 23:56:00,45.4,42.9,30.33,SSE,158,0.0,0.0,91,0.00,,,0.00,WeatherDisplay:10.37,2013-09-18 03:56:00,